Wetbulb
46.66 44.41 41.55 44.07 43.42 44.80 45.08 44.60 43.99 45.79 47.45 45.11 42.74 44.44 45.98 50.55 56.43 55.95 55.90 55.66 56.15 57.19 58.89 60.54 62.46 61.75 59.80 60.89 59.30 59.48 59.43 59.69 60.92 60.49 59.66 57.55 55.97 56.35 53.98 53.77 55.98 54.82 54.64 54.41
45.07 42.13 47.49 47.11 47.92 47.47 45.96 43.53 42.65 45.62 48.08 44.92 44.88 45.88 48.90 50.79 54.32 56.17 55.74 55.36 55.55 55.91 57.66 59.08 59.97 59.69 57.76 60.31 59.20 59.97 60.93 60.86 59.57 58.43 58.02 56.12 54.19 53.46 53.65 52.88 52.88 53.93 54.29 54.21
43.65 46.52 50.79 49.07 47.28 46.79 44.08 43.55 42.82 43.51 46.00 44.94 43.86 44.22 46.24 51.25 54.71 56.17 56.54 56.36 56.33 56.50 56.84 57.94 58.70 58.30 58.10 60.61 60.69 61.34 59.84 58.27 57.86 57.83 56.23 53.88 52.66 52.24 51.70 51.53 52.10 53.07 54.02 54.17
44.80 48.30 49.61 47.68 47.27 46.15 41.85 47.42 47.62 46.38 42.76 38.98 42.92 35.99 41.93 45.68 49.25 54.04 55.12 55.50 55.90 56.59 57.00 57.23 57.80 57.07 57.30 60.76 62.18 60.96 58.84 57.87 57.60 56.17 54.10 52.37 49.98 49.69 50.38 50.80 51.15 51.85 52.84 52.84
46.21 47.22 47.63 47.01 47.01 48.58 45.96 48.47 45.62 45.33 41.18 39.12 40.92 37.45 40.30 44.28 44.24 48.39 53.34 55.10 56.07 56.59 56.79 56.67 57.97 57.68 58.31 61.15 60.87 60.07 58.70 56.88 55.73 54.47 53.09 52.14 50.92 50.72 51.00 50.64 50.11 50.21 50.33 51.00
47.17 50.16 49.10 47.71 49.93 49.42 49.76 45.90 43.68 41.14 38.08 34.64 37.83 38.90 39.02 41.10 45.00 46.03 48.42 52.55 56.35 56.31 56.76 57.69 57.64 58.05 58.64 59.25 58.79 57.99 56.51 55.55 54.65 54.68 54.08 52.82 51.51 49.92 49.38 48.69 48.68 48.91 48.74 49.01
47.11 47.87 49.67 51.87 47.17 48.25 46.66 41.10 33.97 33.46 33.24 33.67 39.55 38.71 39.77 44.61 47.07 48.19 50.28 53.32 55.91 56.47 56.09 56.66 56.16 56.23 56.04 56.16 56.24 55.04 53.30 52.48 52.91 52.42 51.86 50.90 50.48 49.43 48.51 48.17 47.82 47.35 47.41 47.88
41.67 41.66 48.51 51.97 47.72 44.63 43.24 40.91 34.80 30.18 30.20 33.15 41.00 36.36 40.64 46.64 47.83 48.86 51.24 53.98 54.81 54.10 54.20 54.86 54.87 52.04 53.84 55.66 54.08 52.19 51.33 51.38 49.61 49.94 50.30 50.58 49.15 49.00 48.30 47.51 47.62 47.59 47.10 49.94
43.44 44.20 50.84 51.13 50.26 49.37 44.43 40.42 42.18 36.38 35.45 33.55 36.63 40.51 45.18 46.75 47.09 47.40 48.35 52.46 52.63 52.95 53.50 54.63 54.09 51.12 50.79 50.41 49.93 50.23 48.85 48.52 49.08 49.69 50.77 49.42 48.75 47.48 47.42 47.75 47.33 47.64 48.96 49.47
47.00 42.32 49.42 51.85 51.73 50.91 46.19 46.98 39.32 37.21 31.69 30.59 34.98 36.97 38.74 44.02 45.00 46.85 47.33 47.34 48.33 49.81 50.97 52.46 51.94 50.46 49.64 47.89 47.77 47.41 47.54 47.40 48.82 49.43 48.73 48.81 48.16 48.24 47.91 47.30 46.60 46.57 47.28 49.83
46.66 44.04 44.87 48.69 45.71 44.87 45.51 41.82 40.09 38.67 36.69 32.15 30.42 35.35 43.56 44.83 46.18 46.00 46.00 45.85 46.45 46.98 48.08 48.69 49.13 48.54 48.02 47.14 46.49 46.78 47.09 48.56 48.61 48.64 47.81 47.42 47.88 47.59 47.33 46.30 45.90 48.70 49.58 49.68
47.86 43.08 40.33 42.59 48.17 49.69 45.78 42.59 40.39 35.31 34.78 35.53 33.75 34.82 44.92 45.44 45.50 46.18 46.75 47.80 46.63 46.60 47.04 47.12 47.08 47.17 46.70 46.45 46.62 47.06 46.90 48.49 48.61 48.05 47.38 47.38 47.14 46.50 45.39 46.33 48.68 49.24 49.09 49.55
47.98 41.31 36.48 40.55 44.06 46.91 44.94 45.21 42.08 38.97 36.61 34.92 31.95 36.16 47.84 47.33 47.22 47.67 47.37 47.23 47.50 46.06 46.40 46.57 46.54 46.65 46.96 46.78 47.18 47.09 47.43 48.63 48.44 47.76 46.41 46.13 45.95 45.24 44.78 47.33 48.68 49.17 49.16 49.66
51.59 42.43 40.02 36.89 38.86 42.92 42.02 44.29 43.48 40.29 34.69 35.95 37.64 39.98 44.14 45.51 46.56 46.01 44.50 44.81 45.32 45.26 46.90 46.22 45.61 46.10 46.55 47.32 47.27 47.64 48.64 48.31 47.53 46.90 45.74 44.75 44.69 45.15 46.20 48.78 48.89 49.24 49.05 49.25
47.23 42.35 43.40 44.23 46.82 46.01 44.41 44.49 44.71 40.67 40.54 38.03 40.46 39.85 42.87 45.01 44.94 45.34 45.68 45.43 46.10 46.44 46.47 46.11 46.35 46.24 46.71 45.73 46.16 47.79 48.44 47.84 46.32 45.48 44.82 44.60 45.24 46.16 48.42 48.41 49.35 49.13 48.06 49.47
45.48 42.23 42.64 41.55 46.88 46.69 44.37 46.09 45.94 45.50 43.83 42.99 42.99 41.06 45.45 45.53 46.99 46.94 47.08 47.00 46.44 46.92 47.80 47.70 47.79 47.25 46.37 46.40 46.65 47.06 47.87 46.90 45.16 44.28 44.39 45.06 45.70 46.37 48.49 48.47 48.73 48.61 49.04 49.31
44.69 43.13 39.87 37.31 44.96 44.67 37.93 44.36 45.24 45.16 45.58 44.74 40.21 43.70 46.13 47.15 47.57 45.73 46.58 47.24 47.39 48.03 48.37 48.42 48.24 47.72 46.87 46.14 47.07 45.30 46.51 45.53 44.63 44.02 44.37 44.74 45.61 46.53 48.16 48.85 48.37 48.16 48.47 49.09
44.70 42.78 40.90 38.29 40.44 32.98 42.52 49.30 50.01 47.94 48.56 48.07 47.29 47.56 47.72 47.47 47.02 48.58 47.96 48.39 49.19 49.51 49.57 48.53 47.93 47.21 46.17 46.14 45.67 46.00 45.51 44.75 44.16 43.41 43.63 44.61 45.27 46.95 48.16 47.99 48.06 48.22 48.74 48.60
47.44 44.65 40.64 37.74 36.69 42.10 46.46 47.72 46.63 44.40 45.11 50.29 47.72 48.25 48.65 48.99 48.75 48.31 50.28 50.27 49.75 49.67 50.16 49.33 47.96 46.94 45.74 46.02 46.30 45.14 43.96 43.32 43.24 43.18 43.67 44.86 45.73 47.33 47.67 47.53 47.95 48.18 47.75 47.88
48.08 45.91 43.03 39.33 36.15 34.56 44.07 50.31 52.40 49.06 39.50 49.41 50.36 48.96 47.89 48.00 42.42 45.40 50.53 51.33 51.29 50.88 50.23 49.16 47.64 46.91 45.87 45.79 45.01 43.70 42.47 41.81 41.96 43.24 44.27 45.16 46.41 47.82 47.39 47.70 47.54 46.80 47.41 47.17
41.99 41.58 39.91 37.32 36.51 41.26 47.98 51.62 51.61 38.47 39.82 48.38 49.69 48.72 47.93 46.13 47.68 49.63 51.97 51.02 50.91 51.17 51.10 48.89 46.88 46.78 45.98 45.81 44.35 42.39 41.38 41.33 43.25 44.40 44.89 45.23 47.87 47.48 48.24 46.35 46.13 46.20 46.04 46.78
41.50 38.78 38.05 38.44 34.98 36.21 51.21 49.95 43.55 45.31 47.39 49.44 49.04 49.51 48.99 49.98 51.20 50.73 50.63 50.27 51.57 50.98 51.03 48.87 46.62 45.88 45.78 44.95 43.93 41.97 41.12 42.94 43.56 44.13 44.39 45.35 47.48 48.26 46.65 45.28 44.94 45.53 45.53 46.56
40.79 43.48 41.65 42.03 41.58 46.71 48.68 47.28 49.05 49.72 49.90 49.63 48.70 49.48 49.43 48.79 48.19 49.41 49.43 50.02 51.08 50.79 50.21 47.98 46.56 45.52 44.53 44.38 43.70 41.60 43.45 43.20 43.79 43.40 43.69 46.94 47.91 47.21 45.88 44.95 43.83 44.48 45.22 46.18
43.50 47.36 42.90 42.70 44.20 47.36 48.98 51.29 51.48 51.94 50.08 51.41 51.31 49.87 49.16 47.34 48.84 48.72 49.84 49.91 50.17 50.34 49.83 47.30 45.88 44.31 43.39 43.89 44.78 43.58 44.49 43.73 43.49 42.79 44.87 47.23 46.98 46.18 46.15 45.21 44.06 43.97 44.20 45.83
43.79 43.58 44.75 43.69 45.36 48.50 50.84 52.25 52.38 52.94 53.55 52.24 52.30 50.88 49.95 48.91 49.84 49.29 49.53 49.92 50.53 50.09 49.87 46.92 45.56 43.92 44.19 45.04 44.13 45.61 43.97 43.87 43.15 43.96 46.98 46.82 46.87 44.03 42.52 45.48 41.44 43.43 42.38 41.14
44.55 43.60 41.47 41.45 45.22 46.62 47.29 49.51 51.51 49.51 49.18 50.02 49.86 49.39 49.90 50.06 49.81 49.72 50.15 50.41 49.99 50.68 48.73 46.13 45.12 44.66 45.50 45.54 44.39 44.07 44.09 44.18 44.01 44.42 46.53 46.32 46.22 45.55 44.07 44.00 44.22 40.02 38.84 38.25
MSLP
1010.04 1010.57 1010.97 1010.60 1011.17 1011.16 1011.33 1011.37 1011.29 1010.99 1010.73 1010.90 1011.76 1012.28 1012.94 1013.55 1014.52 1015.39 1016.33 1016.80 1017.09 1017.06 1016.95 1016.86 1017.06 1017.37 1017.28 1017.40 1017.77 1018.05 1017.81 1018.12 1018.20 1018.49 1018.89 1018.76 1018.88 1019.07 1019.10 1018.81 1018.55 1018.68 1018.68 1018.65
1010.46 1010.68 1010.13 1010.37 1010.62 1011.22 1011.48 1011.37 1011.57 1011.38 1011.08 1011.43 1012.63 1013.57 1013.89 1014.43 1015.28 1015.65 1016.14 1017.02 1017.30 1017.48 1017.41 1017.33 1017.53 1017.66 1017.61 1017.67 1017.93 1018.24 1018.22 1018.20 1018.43 1018.48 1018.75 1018.92 1018.76 1018.82 1018.82 1018.70 1018.77 1018.73 1018.63 1018.52
1010.59 1010.03 1009.88 1010.19 1011.00 1011.17 1011.44 1011.56 1011.76 1012.05 1012.14 1012.47 1013.41 1014.72 1015.08 1015.34 1015.81 1016.42 1016.44 1016.98 1017.29 1017.26 1017.40 1017.52 1017.66 1017.87 1017.71 1017.89 1018.02 1018.44 1018.48 1018.37 1018.18 1018.53 1018.83 1019.10 1018.79 1019.02 1019.04 1018.83 1018.80 1018.68 1018.57 1018.47
1010.31 1009.86 1010.05 1010.51 1010.83 1011.09 1011.49 1011.49 1011.95 1012.42 1013.11 1013.60 1014.07 1015.77 1015.86 1016.20 1016.57 1016.78 1016.88 1017.18 1017.26 1017.31 1017.58 1017.72 1017.75 1017.80 1017.86 1018.02 1018.09 1018.37 1018.47 1018.30 1018.45 1018.73 1019.04 1018.80 1019.16 1019.49 1019.27 1019.19 1019.07 1018.91 1018.67 1018.55
1010.25 1010.02 1010.06 1010.46 1010.87 1010.93 1011.61 1011.83 1012.60 1013.28 1013.88 1014.77 1015.19 1015.80 1016.21 1016.25 1016.69 1016.73 1016.83 1017.13 1017.44 1017.48 1017.68 1017.88 1017.75 1017.75 1017.84 1018.00 1018.14 1018.45 1018.45 1018.47 1018.64 1019.00 1018.88 1019.03 1019.31 1019.36 1019.26 1019.29 1019.13 1018.95 1018.71 1018.51
1010.35 1010.12 1010.12 1010.57 1010.95 1011.23 1011.79 1012.53 1013.60 1014.63 1015.56 1016.45 1016.29 1016.29 1016.42 1016.19 1016.17 1016.36 1016.49 1016.75 1017.08 1017.30 1017.33 1017.59 1017.69 1017.71 1017.75 1017.99 1018.34 1018.64 1018.68 1018.75 1018.92 1018.89 1018.90 1019.01 1019.26 1019.40 1019.49 1019.35 1019.28 1019.03 1018.80 1018.52
1010.96 1010.80 1010.47 1010.39 1011.13 1011.73 1012.33 1013.95 1015.75 1017.01 1017.72 1017.94 1016.93 1016.61 1016.22 1015.62 1015.45 1015.65 1016.00 1016.37 1016.62 1016.92 1017.54 1017.64 1017.60 1017.89 1018.21 1018.41 1018.39 1018.41 1018.70 1018.92 1018.90 1018.89 1018.89 1019.05 1019.24 1019.39 1019.44 1019.41 1019.42 1019.28 1018.88 1018.17
1011.89 1011.65 1010.90 1010.49 1011.11 1012.31 1013.62 1015.07 1016.82 1018.44 1019.47 1018.84 1017.44 1017.17 1016.28 1015.53 1015.44 1015.26 1015.60 1016.05 1016.68 1017.20 1017.45 1017.69 1017.93 1018.02 1018.16 1018.13 1018.23 1018.70 1018.95 1019.00 1018.98 1019.04 1019.14 1019.26 1019.41 1019.55 1019.57 1019.51 1019.27 1018.94 1018.50 1017.91
1012.35 1012.08 1011.28 1011.01 1011.05 1012.05 1013.93 1015.36 1016.57 1018.14 1019.54 1019.56 1018.42 1017.27 1016.43 1015.85 1016.07 1016.05 1015.96 1016.34 1016.83 1017.19 1017.45 1017.69 1017.85 1017.95 1018.18 1018.43 1018.65 1018.88 1019.10 1019.26 1019.28 1019.29 1019.37 1019.51 1019.59 1019.54 1019.37 1019.11 1018.85 1018.52 1018.09 1017.58
1012.34 1012.69 1012.36 1011.74 1011.67 1012.48 1013.38 1015.06 1016.73 1018.33 1019.83 1020.08 1019.10 1018.08 1017.02 1016.60 1016.54 1016.39 1016.64 1016.80 1016.91 1016.89 1017.24 1017.59 1017.82 1018.12 1018.44 1018.84 1019.10 1019.33 1019.41 1019.56 1019.55 1019.56 1019.63 1019.65 1019.54 1019.34 1019.09 1018.80 1018.52 1018.10 1017.67 1017.19
1012.24 1013.04 1013.56 1012.96 1013.16 1013.46 1014.24 1015.38 1017.24 1018.59 1019.86 1020.15 1019.89 1018.28 1016.52 1016.08 1016.10 1016.42 1016.70 1017.07 1017.01 1017.11 1017.29 1017.64 1017.94 1018.51 1018.85 1019.04 1019.26 1019.53 1019.67 1019.70 1019.76 1019.80 1019.85 1019.82 1019.68 1019.41 1019.08 1018.62 1018.00 1017.71 1017.27 1016.86
1013.13 1014.16 1014.83 1014.47 1013.93 1013.96 1014.17 1015.22 1016.76 1018.77 1019.84 1020.04 1019.57 1017.55 1016.06 1015.77 1015.98 1016.33 1016.80 1016.78 1016.99 1017.22 1017.55 1017.99 1018.40 1018.83 1019.38 1019.62 1019.53 1019.47 1019.50 1019.65 1019.77 1019.89 1019.92 1019.88 1019.64 1019.30 1018.94 1018.19 1017.83 1017.44 1017.07 1016.63
1013.42 1015.28 1015.96 1015.56 1015.03 1014.61 1014.94 1015.54 1016.74 1018.09 1018.98 1019.43 1019.53 1017.44 1015.75 1015.75 1015.84 1016.11 1016.36 1016.61 1017.19 1017.60 1018.17 1018.82 1019.15 1019.39 1019.56 1019.61 1019.53 1019.49 1019.51 1019.52 1019.44 1019.42 1019.37 1019.27 1019.12 1018.99 1018.69 1018.11 1017.67 1017.23 1016.88 1016.52
1013.71 1015.73 1016.09 1016.37 1015.92 1015.75 1015.67 1015.95 1016.57 1017.56 1018.72 1018.71 1018.17 1016.86 1016.19 1016.01 1016.12 1016.35 1016.75 1017.16 1017.62 1018.13 1018.51 1018.76 1019.19 1019.29 1019.48 1019.43 1019.39 1019.24 1019.30 1019.39 1019.51 1019.46 1019.44 1019.30 1018.92 1018.54 1018.28 1017.88 1017.49 1017.08 1016.75 1016.31
1014.81 1016.36 1016.46 1016.45 1016.22 1015.96 1016.00 1016.21 1016.38 1017.05 1017.20 1017.75 1016.92 1016.85 1016.05 1016.08 1016.39 1016.63 1016.99 1017.45 1017.87 1018.32 1018.59 1018.83 1019.15 1019.31 1019.29 1019.41 1019.22 1019.19 1019.28 1019.44 1019.45 1019.53 1019.42 1019.09 1018.68 1018.37 1017.87 1017.58 1017.21 1016.89 1016.55 1016.05
1015.80 1016.85 1017.01 1017.12 1016.68 1016.41 1016.30 1016.23 1016.11 1016.02 1016.22 1016.50 1016.26 1016.16 1015.71 1015.79 1016.12 1016.51 1016.84 1017.48 1018.05 1018.19 1018.47 1018.60 1018.66 1018.83 1019.01 1018.99 1019.02 1019.07 1019.20 1019.33 1019.40 1019.33 1019.17 1018.89 1018.48 1018.05 1017.59 1017.33 1016.97 1016.69 1016.30 1015.86
1016.59 1017.56 1018.25 1018.16 1017.46 1016.99 1016.84 1016.42 1016.28 1016.17 1015.97 1016.00 1016.15 1015.70 1015.60 1015.67 1015.82 1016.51 1017.24 1017.49 1017.89 1017.97 1017.85 1017.98 1018.05 1018.16 1018.32 1018.77 1018.99 1019.10 1019.28 1019.36 1019.26 1019.23 1019.09 1018.63 1018.31 1017.83 1017.40 1017.06 1016.79 1016.51 1016.12 1015.73
1017.09 1018.09 1018.81 1019.11 1018.40 1017.96 1016.84 1016.40 1016.35 1016.27 1016.24 1015.92 1015.63 1015.61 1015.70 1015.93 1016.31 1016.64 1017.05 1017.19 1017.48 1017.43 1017.39 1017.47 1017.48 1017.65 1018.10 1018.37 1018.89 1019.12 1019.36 1019.53 1019.27 1019.12 1018.90 1018.56 1018.04 1017.65 1017.17 1016.91 1016.64 1016.34 1015.97 1015.66
1017.22 1018.16 1019.51 1019.75 1019.40 1018.42 1017.17 1016.46 1016.50 1016.58 1016.59 1016.12 1015.98 1015.97 1016.05 1016.39 1016.73 1016.91 1016.71 1016.89 1016.95 1016.85 1016.63 1016.67 1016.95 1017.41 1017.77 1018.32 1018.94 1019.33 1019.56 1019.62 1019.36 1019.20 1018.83 1018.39 1017.92 1017.50 1017.05 1016.79 1016.48 1016.27 1015.96 1015.68
1017.77 1018.33 1019.05 1020.19 1019.87 1018.91 1017.14 1016.42 1016.39 1016.71 1016.75 1016.25 1016.30 1016.48 1016.71 1017.14 1017.67 1017.37 1016.63 1016.80 1016.63 1016.40 1016.29 1016.53 1016.95 1017.61 1018.13 1018.46 1018.87 1019.48 1019.67 1019.60 1019.41 1019.14 1018.80 1018.24 1017.82 1017.44 1017.06 1016.78 1016.44 1016.27 1016.03 1015.72
1018.45 1019.32 1019.80 1020.00 1019.56 1018.45 1016.78 1016.56 1016.60 1017.45 1017.39 1016.50 1016.51 1016.57 1016.77 1017.43 1017.62 1017.30 1016.84 1016.64 1016.65 1016.42 1016.19 1016.55 1017.29 1017.85 1018.24 1018.81 1019.29 1019.80 1019.71 1019.58 1019.35 1019.02 1018.53 1018.17 1017.80 1017.46 1017.05 1016.95 1016.68 1016.39 1016.11 1015.71
1018.63 1019.49 1020.03 1020.39 1019.70 1018.20 1016.63 1016.77 1017.13 1017.26 1016.70 1016.59 1016.62 1016.72 1016.94 1017.08 1017.19 1017.15 1017.09 1017.05 1016.85 1016.68 1016.41 1016.61 1017.37 1018.03 1018.75 1019.05 1019.38 1019.59 1019.62 1019.44 1019.25 1018.85 1018.46 1018.19 1017.85 1017.48 1017.32 1017.14 1016.89 1016.59 1016.24 1015.82
1018.63 1018.41 1018.73 1019.51 1018.46 1017.28 1016.63 1016.38 1016.26 1016.51 1016.42 1016.52 1016.64 1016.82 1016.89 1017.11 1017.25 1017.38 1017.39 1017.23 1016.89 1016.70 1016.63 1016.87 1017.44 1018.42 1018.66 1018.82 1019.13 1019.53 1019.50 1019.43 1019.28 1018.85 1018.50 1018.18 1017.93 1017.68 1017.53 1017.39 1017.21 1016.87 1016.52 1016.23
1018.06 1018.15 1018.44 1018.55 1017.83 1017.19 1016.62 1016.38 1016.24 1016.18 1016.36 1016.57 1016.72 1016.89 1017.00 1017.30 1017.51 1017.52 1017.42 1017.38 1017.17 1016.78 1016.74 1017.10 1017.70 1018.04 1018.54 1018.84 1019.31 1019.52 1019.38 1019.32 1019.18 1018.88 1018.58 1018.33 1018.13 1018.01 1017.82 1017.77 1017.54 1017.28 1017.08 1016.92
1017.97 1017.85 1018.15 1018.18 1017.60 1017.12 1016.65 1016.35 1016.42 1016.43 1016.52 1016.65 1016.74 1016.86 1017.06 1017.22 1017.42 1017.69 1017.95 1017.72 1017.30 1016.95 1016.68 1016.92 1017.49 1018.20 1018.65 1019.26 1019.56 1019.42 1019.33 1019.35 1019.17 1018.98 1018.71 1018.60 1018.40 1018.40 1018.38 1018.16 1018.20 1017.90 1017.82 1017.71
1017.51 1017.27 1017.68 1017.51 1017.17 1017.20 1016.85 1016.50 1016.45 1016.59 1016.81 1016.94 1017.00 1017.12 1017.19 1017.36 1017.68 1017.74 1017.85 1017.54 1017.23 1016.86 1016.58 1016.80 1017.55 1018.09 1018.65 1019.03 1019.29 1019.41 1019.33 1019.30 1019.21 1019.08 1018.93 1018.88 1018.75 1018.82 1018.82 1018.71 1018.62 1018.46 1018.33 1018.17
Wind_Speed
4 7 3 8 4 4 1 5 3 2 6 5 4 7 8 5 8 10 9 10 9 11 5 5 2 3 5 1 2 3 4 3 2 2 1 2 2 2 2 2 1 2 2 4
8 3 7 2 5 5 4 5 4 4 6 4 7 8 7 6 3 7 12 9 10 4 8 5 4 4 4 3 2 1 3 4 3 3 2 1 1 1 2 2 3 1 4 5
6 8 6 5 4 6 4 4 1 2 3 3 6 6 6 6 6 2 3 2 5 11 11 6 4 6 3 3 6 5 5 5 3 3 1 2 3 2 3 2 3 3 5 5
3 5 7 6 3 4 3 2 2 3 3 3 3 3 4 4 2 4 5 5 7 9 4 2 5 5 4 5 6 7 5 5 5 5 4 2 2 2 3 1 2 4 4 5
3 5 6 6 2 3 3 2 3 2 1 6 8 7 6 2 1 4 7 8 8 7 6 6 8 7 6 5 6 6 5 6 4 5 2 2 3 2 1 2 4 4 5 6
2 2 2 3 4 4 2 3 7 5 4 5 3 5 3 2 5 3 4 8 8 8 8 6 5 5 5 2 4 5 7 6 4 3 3 4 5 4 2 3 3 4 3 4
6 6 4 3 4 7 10 9 6 8 8 3 6 5 8 5 3 6 7 7 9 6 4 6 7 2 1 5 7 5 3 3 4 3 3 4 4 3 4 5 4 5 4 4
4 6 2 0 5 5 4 6 6 1 1 6 5 2 6 2 1 1 4 5 4 4 5 4 4 4 8 9 6 1 3 4 3 4 5 2 2 2 3 3 3 4 4 5
5 2 3 3 3 5 1 4 4 7 2 2 4 3 4 1 2 2 4 5 5 5 7 8 7 8 6 4 4 4 3 3 4 4 3 2 2 2 1 4 5 4 6 5
6 4 2 4 6 6 4 5 4 5 0 2 5 5 6 6 3 1 5 6 7 7 8 8 7 8 3 3 3 2 1 3 3 3 2 2 2 2 4 4 7 6 7 6
5 5 4 3 2 3 3 2 7 5 5 5 1 7 8 10 10 9 7 6 7 6 6 6 6 4 5 4 2 3 3 3 0 1 2 2 3 5 6 6 6 6 6 7
2 6 3 1 5 4 2 3 5 7 4 2 4 9 3 7 5 6 9 9 5 6 7 5 5 5 5 5 5 3 1 2 2 2 3 4 5 6 7 7 6 6 7 7
5 3 4 8 8 6 3 2 5 4 3 4 5 9 3 3 7 7 9 5 4 5 6 5 5 6 5 5 4 4 4 5 4 2 2 4 5 6 8 7 6 6 7 7
9 4 7 8 6 3 3 5 3 4 3 3 7 6 4 4 6 4 2 3 6 6 7 5 5 6 6 7 7 5 5 4 2 1 3 4 6 6 6 7 7 6 6 7
6 4 2 2 1 2 1 2 5 5 6 6 6 4 7 7 6 5 5 4 6 7 7 7 7 7 7 7 6 5 4 4 2 3 4 5 6 6 5 6 7 7 6 6
3 2 2 2 1 5 3 6 6 3 3 1 4 1 3 3 5 7 9 8 6 7 7 9 8 8 8 8 7 5 5 4 1 2 5 6 6 6 5 6 7 7 7 7
4 5 4 4 3 5 5 4 3 2 2 5 2 5 3 4 4 3 7 6 7 9 10 9 10 9 7 7 5 5 5 2 1 4 5 5 6 6 6 6 7 7 7 6
5 5 3 3 3 0 6 2 4 4 4 4 1 2 1 2 1 3 6 8 10 9 9 9 8 7 6 4 3 4 3 1 3 4 5 6 6 6 6 6 6 7 7 6
2 6 3 4 3 4 2 3 5 4 4 3 2 2 2 2 4 4 7 7 9 8 9 9 6 5 4 5 5 4 2 2 4 5 5 6 6 6 7 7 7 6 6 7
5 6 6 3 4 6 7 3 2 2 5 1 0 1 2 4 1 6 4 4 9 10 8 7 6 2 5 5 6 4 1 3 5 5 6 6 6 6 6 6 7 5 5 5
3 3 4 2 3 6 7 4 2 5 9 1 1 1 0 3 5 5 7 6 5 7 8 3 4 6 5 5 5 1 1 4 5 6 5 6 5 5 5 6 5 5 5 4
8 6 4 3 2 6 5 5 6 8 3 0 1 1 3 0 5 6 7 7 8 8 5 5 6 5 5 5 3 1 3 5 5 5 6 5 5 4 5 6 6 5 4 3
2 7 6 9 8 4 4 5 5 6 3 2 2 2 2 1 3 6 6 8 8 7 5 3 6 6 4 5 3 2 4 5 5 5 5 4 4 4 5 5 5 4 4 3
4 3 2 2 2 4 4 2 3 4 3 2 1 2 1 4 5 6 7 8 8 7 5 4 7 8 6 5 3 2 5 3 3 5 4 4 3 4 5 4 4 4 4 3
5 1 2 1 3 2 4 2 3 3 2 2 2 1 2 3 6 4 6 7 8 7 5 5 6 5 5 3 2 4 3 3 4 4 4 3 3 5 5 4 4 3 3 3
4 7 5 7 5 5 4 1 2 4 4 5 5 4 3 1 4 3 7 6 5 8 4 5 7 6 5 5 3 3 3 3 3 4 3 3 3 3 4 4 3 8 9 9
Wind_Direction
355 46 292 264 156 179 213 114 105 324 334 81 19 6 354 39 101 126 153 171 192 210 271 309 339 329 308 234 254 239 161 78 99 79 15 47 100 280 215 222 245 348 352 2
9 292 263 50 135 115 196 108 1 328 349 71 45 32 14 49 144 184 161 185 202 214 243 254 252 293 349 262 144 71 104 124 121 114 195 227 182 243 276 304 281 348 2 352
168 244 34 107 97 88 24 80 11 220 343 44 97 15 10 15 28 28 56 187 223 211 217 231 219 247 302 218 150 153 151 140 123 148 110 251 34 6 334 315 333 345 346 339
216 300 127 111 123 122 53 256 242 263 87 201 57 216 357 20 350 303 261 241 232 233 237 182 215 251 247 239 171 167 173 162 211 205 223 171 196 231 242 274 296 305 308 313
271 138 112 85 28 141 220 354 33 14 92 90 345 78 264 180 84 259 255 252 249 245 230 219 222 219 222 218 186 160 195 227 232 223 239 200 238 249 303 285 287 300 311 306
6 156 68 112 58 42 29 16 42 48 54 59 266 122 262 226 169 223 254 235 233 231 227 226 237 214 206 147 172 201 208 227 247 249 240 232 247 265 267 289 289 287 279 280
12 337 317 137 84 9 58 45 356 11 12 241 325 54 235 258 185 181 188 215 213 212 195 197 200 216 141 199 207 212 210 266 270 268 290 269 253 223 249 270 277 291 289 276
111 343 335 215 130 149 66 110 138 59 292 279 335 132 260 246 126 182 174 156 130 174 195 197 171 198 203 209 209 204 218 235 277 284 281 238 251 292 294 280 273 273 261 271
130 282 320 14 120 107 134 42 173 105 11 44 287 319 354 101 188 114 127 139 180 217 184 181 184 199 200 190 205 197 192 244 279 270 215 268 272 262 272 300 287 277 286 286
191 117 347 347 49 29 95 155 39 13 115 288 304 284 235 230 209 231 137 161 189 210 191 195 191 189 186 140 146 163 222 244 256 218 217 232 219 219 270 275 280 289 280 282
119 105 277 39 41 196 11 30 55 110 131 169 226 269 216 208 196 194 195 186 191 183 180 178 187 132 142 117 134 207 212 203 238 345 293 261 269 278 278 265 286 277 291 296
36 121 104 192 320 318 176 160 122 118 250 195 156 268 301 254 201 162 201 212 188 180 188 162 133 140 154 189 197 193 253 200 235 268 266 253 273 292 288 300 299 290 292 299
181 28 51 353 353 357 28 60 104 112 79 209 133 266 299 123 154 199 176 200 166 167 140 137 161 176 188 208 219 221 220 207 218 215 230 275 286 296 297 307 300 298 303 301
84 99 148 183 199 193 325 351 63 114 106 225 230 274 235 211 185 192 159 139 160 160 163 186 195 203 210 216 219 214 204 206 205 254 303 296 286 291 292 304 301 300 302 300
87 106 152 158 235 54 279 312 310 198 210 158 271 232 293 217 213 216 205 170 153 166 198 210 208 216 224 232 233 211 211 183 199 300 302 294 293 298 302 308 303 301 297 297
6 146 81 355 30 36 338 331 313 305 107 3 97 56 238 161 154 172 178 171 187 205 221 224 218 218 222 227 220 211 192 183 211 288 293 306 313 312 303 305 311 307 303 306
86 122 86 258 357 14 4 293 343 34 5 150 165 229 189 184 178 172 194 180 202 220 224 224 222 219 218 226 218 210 179 178 205 306 319 325 315 305 307 308 313 308 306 308
124 99 101 197 46 121 244 279 262 114 335 320 99 15 166 160 12 237 212 193 224 235 239 237 227 223 219 199 191 139 142 167 327 321 321 320 313 306 309 314 312 310 312 307
51 124 98 138 179 277 250 219 175 172 255 229 161 127 190 78 43 296 228 234 245 249 244 239 227 206 190 164 157 140 130 315 327 324 323 315 309 311 321 323 321 318 325 317
57 63 117 139 160 196 238 219 147 103 281 321 243 87 167 133 51 263 299 264 263 261 249 243 221 148 152 158 140 135 195 327 322 323 316 311 306 319 330 331 331 322 321 304
24 1 173 158 215 288 241 184 100 97 238 116 35 316 318 186 212 260 319 322 323 281 279 185 150 189 182 134 114 140 317 319 301 311 319 324 330 332 344 342 329 322 319 317
179 161 209 104 135 271 167 80 166 217 228 195 119 78 87 97 319 331 323 322 312 320 305 160 172 167 121 132 134 173 322 289 310 321 334 339 345 2 360 348 337 330 333 17
261 185 185 170 213 253 241 187 182 173 142 160 144 174 147 308 321 313 311 315 313 322 311 183 156 140 160 169 154 112 294 295 322 341 351 358 6 15 360 358 342 344 353 29
320 162 127 94 299 275 249 233 190 174 139 135 100 129 58 337 336 321 341 340 330 317 306 186 162 170 176 182 148 243 288 321 348 347 4 359 25 11 6 3 357 7 6 31
206 81 169 288 284 338 20 117 148 123 110 97 106 97 25 13 355 333 322 317 314 307 299 188 176 147 182 141 214 282 297 3 350 356 5 3 33 29 8 31 12 2 33 358
197 188 156 217 215 161 220 109 114 99 94 87 92 58 18 356 287 297 320 300 291 303 269 177 150 165 155 165 199 272 348 12 13 15 4 15 42 37 19 25 14 49 40 42